Zurück zum Katalog

FENGYUN 1C DEB

AktivPO
NORAD 30385·DEBRIS·🇨🇳 China

Gestartet May 10, 1999 von Taiyuan Satellite Launch Center

Loading…

Nächste Überflüge (nächste 24 Stunden)

TLE

AktuellSource: Space-Track

Epoche: Sep 14, 2026, 14:15 UTC

1 30385U 99025ACY 26257.59384437  .00000418  00000-0  13887-3 0  9992
2 30385  99.0556 299.0620 0124643 197.6865 316.1063 14.39212580 27346

Verfolge FENGYUN 1C DEB in Echtzeit mit AllMySat

Download on the App Store